ELEKTRO-L 1

Last updated on Thu Jan 18 2018 00:18:53 GMT+0000 (Coordinated Universal Time)

1 37344U 11001A 18017.24104264 .00000056 00000-0 00000+0 0 9994 2 37344 2.8743 77.1202 0005066 269.9763 89.7753 1.00163305 25651

Satellite not in orbit

ELEKTRO-L 1